This is the latest recevied weather packets stored in our database for station/object KQ7A. If no packets are shown the sender has not sent any weather packets the latest 10 day(s).
| Time | Temp. | Humidity | Pressure | Rain* | Wind** | Luminosity | Snow |
|---|---|---|---|---|---|---|---|
| 1788693986 | 9.44° C | 58% | 1016.9 hPa | 0 mm | - | 0 W/m² | - |
| 1788693684 | 8.89° C | 60% | 1017 hPa | 0 mm | - | 0 W/m² | - |
| 1788693382 | 8.89° C | 60% | 1016.8 hPa | 0 mm | - | 0 W/m² | - |
| 1788693078 | 9.44° C | 59% | 1016.8 hPa | 0 mm | - | 0 W/m² | - |
| 1788692778 | 10° C | 54% | 1016.9 hPa | 0 mm | - | 0 W/m² | - |
| 1788692472 | 9.44° C | 54% | 1017 hPa | 0 mm | - | 0 W/m² | - |
| 1788692167 | 9.44° C | 58% | 1016.8 hPa | 0 mm | - | 0 W/m² | - |
| 1788691863 | 9.44° C | 55% | 1016.9 hPa | 0 mm | - | 0 W/m² | - |
| 1788691562 | 10° C | 59% | 1016.9 hPa | 0 mm | - | 0 W/m² | - |
| 1788691256 | 10.56° C | 52% | 1017 hPa | 0 mm | - | 0 W/m² | - |
| 1788690954 | 10.56° C | 55% | 1016.9 hPa | 0 mm | - | 0 W/m² | - |
| 1788690649 | 11.11° C | 54% | 1016.8 hPa | 0 mm | - | 0 W/m² | - |
| 1788690344 | 10.56° C | 54% | 1016.8 hPa | 0 mm | - | 0 W/m² | - |
| 1788690038 | 10.56° C | 56% | 1016.8 hPa | 0 mm | - | 0 W/m² | - |
| 1788689734 | 11.67° C | 52% | 1016.7 hPa | 0 mm | - | 0 W/m² | - |
| 1788689428 | 12.22° C | 50% | 1016.8 hPa | 0 mm | - | 0 W/m² | - |
| 1788689123 | 10.56° C | 55% | 1016.9 hPa | 0 mm | - | 0 W/m² | - |
| 1788688847 | 10.56° C | 54% | 1016.9 hPa | 0 mm | - | 0 W/m² | - |
| 1788688513 | 11.11° C | 52% | 1016.7 hPa | 0 mm | - | 0 W/m² | - |
| 1788688208 | 11.67° C | 50% | 1017 hPa | 0 mm | - | 0 W/m² | - |
| 1788687907 | 12.78° C | 51% | 1016.8 hPa | 0 mm | - | 0 W/m² | - |
| 1788687603 | 13.33° C | 48% | 1016.9 hPa | 0 mm | - | 0 W/m² | - |
| 1788687299 | 13.89° C | 47% | 1016.9 hPa | 0 mm | - | 0 W/m² | - |
| 1788686994 | 13.89° C | 45% | 1016.8 hPa | 0 mm | - | 0 W/m² | - |
| 1788686694 | 12.78° C | 46% | 1016.7 hPa | 0 mm | - | 0 W/m² | - |
* Rain latest hour (hover to see other rain measurements)
** Current wind speed in m/s (hover to see current wind gust speed)